User: anonymous   Login
Location: Amsterdam
(30.7274°N, 84.4357°W)
Time: 01:31:42
(UTC+00:00)
Language:

ISS - Orbit

View from above orbital plane
View from above orbital plane
View from above satellite
View from above satellite

Ground track
Ground track

The orbit is defined by the following mean orbital elements,

1 25544U          26045.79523799 +.00000000 +00000-0 +15107-3 0 00008
2 25544  51.6315 185.5279 0011056  98.8248 261.3993 15.48601910    00
Epoch (UTC): 14 February 2026 19:05:08
Eccentricity: 0.0011056
inclination: 51.6315°
perigee height: 413 km
apogee height: 428 km
right ascension of ascending node: 185.5279°
argument of perigee: 98.8248°
revolutions per day: 15.48601910
mean anomaly at epoch: 261.3993°

The dashed part of the orbit path shows where the satellite is in the earth's shadow,  

DLR